SBI5566 UZTT-UNNT

Flight info

Callsign SBI5566
Flight time N/A
Altitude 35000
Route N0450F350 BAMUT Z554 SMK N102 TENRO M34 BLH M149 LAGMO B955 ORPAS
Aircraft A321/M-VGDW/C

Departure

Time 2026-04-25 14:19
Airport Tashkent International Airport (UZTT)

Arrival

Time N/A
Airport Novosibirsk Tolmachevo Airport (UNNT)
Time Latitude Longitude Altitude Speed Heading
2026-04-25 14:02 41.25970 69.26814 1422 ft 0 kts 337°
2026-04-25 14:15 41.25972 69.26813 1422 ft 0 kts 337°
2026-04-25 14:15 41.25972 69.26812 1422 ft 0 kts 337°
2026-04-25 14:15 41.25980 69.26807 1422 ft 5 kts 333°
2026-04-25 14:15 41.26004 69.26769 1422 ft 6 kts 265°
2026-04-25 14:16 41.25992 69.26708 1422 ft 7 kts 251°
2026-04-25 14:16 41.25959 69.26613 1422 ft 16 kts 243°
2026-04-25 14:16 41.25903 69.26481 1422 ft 16 kts 229°
2026-04-25 14:16 41.25818 69.26382 1422 ft 16 kts 217°
2026-04-25 14:17 41.25744 69.26273 1422 ft 15 kts 241°
2026-04-25 14:17 41.25698 69.26141 1421 ft 15 kts 244°
2026-04-25 14:17 41.25650 69.26009 1421 ft 15 kts 244°
2026-04-25 14:17 41.25602 69.25875 1421 ft 16 kts 244°
2026-04-25 14:18 41.25525 69.25790 1421 ft 14 kts 168°
2026-04-25 14:18 41.25431 69.25841 1421 ft 14 kts 142°
2026-04-25 14:18 41.25418 69.25962 1421 ft 14 kts 79°
2026-04-25 14:18 41.25446 69.26201 1421 ft 32 kts 81°
2026-04-25 14:19 41.25512 69.26764 1422 ft 98 kts 81°
2026-04-25 14:19 41.25643 69.27969 1427 ft 162 kts 82°
2026-04-25 14:19 41.25813 69.29533 1912 ft 174 kts 82°
2026-04-25 14:19 41.25979 69.31060 2631 ft 167 kts 82°
2026-04-25 14:20 41.26032 69.31554 2861 ft 165 kts 82°
2026-04-25 14:20 41.26192 69.33036 3520 ft 161 kts 82°
2026-04-25 14:20 41.26462 69.35468 4271 ft 162 kts 82°
2026-04-25 14:20 41.26626 69.36954 4712 ft 164 kts 82°
2026-04-25 14:21 41.26791 69.38449 5154 ft 165 kts 82°
2026-04-25 14:21 41.26955 69.39950 5593 ft 166 kts 82°
2026-04-25 14:21 41.27120 69.41467 6036 ft 167 kts 82°
2026-04-25 14:21 41.27287 69.43008 6401 ft 176 kts 82°
2026-04-25 14:22 41.27467 69.44682 6699 ft 191 kts 82°
2026-04-25 14:22 41.27662 69.46500 6994 ft 209 kts 82°
2026-04-25 14:22 41.27880 69.48509 7313 ft 228 kts 82°
2026-04-25 14:22 41.28114 69.50662 7703 ft 245 kts 82°
2026-04-25 14:23 41.28154 69.52974 8075 ft 262 kts 104°
2026-04-25 14:23 41.27239 69.55069 8527 ft 270 kts 141°
2026-04-25 14:23 41.25540 69.56119 9104 ft 272 kts 175°
2026-04-25 14:23 41.23668 69.56049 9810 ft 273 kts 185°
2026-04-25 14:24 41.21747 69.55962 10517 ft 277 kts 181°
2026-04-25 14:24 41.19842 69.55746 11196 ft 277 kts 200°
2026-04-25 14:24 41.18276 69.54365 11855 ft 275 kts 232°
2026-04-25 14:24 41.17530 69.52080 12512 ft 278 kts 262°
2026-04-25 14:25 41.17455 69.49502 13310 ft 279 kts 268°
2026-04-25 14:25 41.17397 69.46945 13938 ft 282 kts 265°
2026-04-25 14:25 41.17240 69.44353 14569 ft 285 kts 263°
2026-04-25 14:25 41.17170 69.43495 14782 ft 286 kts 262°
2026-04-25 14:26 41.16741 69.39124 15825 ft 291 kts 261°
2026-04-25 14:26 41.16451 69.36437 16440 ft 294 kts 261°
2026-04-25 14:26 41.16157 69.33773 17050 ft 296 kts 261°
2026-04-25 14:26 41.15859 69.31100 17715 ft 295 kts 261°
2026-04-25 14:27 41.15563 69.28451 18626 ft 286 kts 261°
2026-04-25 14:27 41.15271 69.25840 19060 ft 294 kts 261°
2026-04-25 14:27 41.14962 69.23081 19318 ft 307 kts 261°
2026-04-25 14:27 41.14643 69.20237 19567 ft 320 kts 261°
2026-04-25 14:28 41.14308 69.17271 19811 ft 333 kts 261°
2026-04-25 14:28 41.14156 69.14188 20086 ft 343 kts 277°
2026-04-25 14:28 41.14994 69.11208 20534 ft 350 kts 303°
2026-04-25 14:28 41.16769 69.09042 21073 ft 356 kts 329°
2026-04-25 14:29 41.19161 69.08085 21556 ft 365 kts 354°
2026-04-25 14:29 41.23239 69.08264 22375 ft 370 kts 358°
2026-04-25 14:30 41.34123 69.07589 24424 ft 386 kts 11°
2026-04-25 14:30 41.36626 69.08881 24933 ft 390 kts 23°
2026-04-25 14:31 41.39057 69.10473 25405 ft 393 kts 24°
2026-04-25 14:31 41.41517 69.12118 25832 ft 396 kts 24°
2026-04-25 14:31 41.43976 69.13758 26261 ft 398 kts 24°
2026-04-25 14:31 41.46452 69.15400 26613 ft 403 kts 24°
2026-04-25 14:32 41.48980 69.17070 26796 ft 411 kts 23°
2026-04-25 14:32 41.51587 69.18784 26980 ft 419 kts 23°
2026-04-25 14:32 41.54209 69.20509 27221 ft 425 kts 24°
2026-04-25 14:32 41.56887 69.22273 27662 ft 426 kts 24°
2026-04-25 14:33 41.59531 69.24017 27906 ft 431 kts 23°
2026-04-25 14:33 41.62221 69.25788 28081 ft 438 kts 24°
2026-04-25 14:33 41.64984 69.27612 28381 ft 441 kts 23°
2026-04-25 14:33 41.67712 69.29413 28825 ft 440 kts 24°
2026-04-25 14:34 41.70436 69.31215 29323 ft 438 kts 23°
2026-04-25 14:34 41.73151 69.33013 29811 ft 436 kts 23°
2026-04-25 14:34 41.75885 69.34825 30274 ft 434 kts 23°
2026-04-25 14:34 41.78563 69.36601 30711 ft 433 kts 23°
2026-04-25 14:35 41.81243 69.38379 31120 ft 432 kts 22°
2026-04-25 14:35 41.84011 69.39991 31518 ft 429 kts 17°
2026-04-25 14:35 41.86824 69.41204 31906 ft 426 kts 11°
2026-04-25 14:35 41.89696 69.42032 32299 ft 422 kts
2026-04-25 14:36 41.92572 69.42599 32690 ft 420 kts
2026-04-25 14:36 41.95485 69.43111 33043 ft 420 kts
2026-04-25 14:36 41.98355 69.43599 33395 ft 418 kts
2026-04-25 14:36 42.01265 69.43906 33746 ft 416 kts 359°
2026-04-25 14:37 42.04137 69.43993 34086 ft 414 kts 356°
2026-04-25 14:37 42.06997 69.44016 34461 ft 413 kts 356°
2026-04-25 14:37 42.09862 69.44029 34838 ft 412 kts 356°
2026-04-25 14:37 42.12717 69.44041 35139 ft 412 kts 356°
2026-04-25 14:38 42.18448 69.44073 35139 ft 411 kts 356°
2026-04-25 14:38 42.24164 69.44112 35121 ft 411 kts 356°
2026-04-25 14:39 42.29859 69.44148 35117 ft 411 kts 356°
2026-04-25 14:39 42.35610 69.45208 35113 ft 431 kts 15°
2026-04-25 14:40 42.38351 69.46900 35111 ft 443 kts 26°
2026-04-25 14:40 42.40853 69.49380 35110 ft 454 kts 39°
2026-04-25 14:40 42.45273 69.55637 35118 ft 462 kts 44°
2026-04-25 14:41 42.49602 69.62018 35126 ft 463 kts 44°
2026-04-25 14:41 42.53982 69.68416 35143 ft 462 kts 44°
2026-04-25 14:42 42.57623 69.73717 35161 ft 462 kts 44°
2026-04-25 14:42 42.62745 69.81105 35181 ft 461 kts 41°
2026-04-25 14:43 42.67469 69.86868 35198 ft 459 kts 37°
2026-04-25 14:43 42.72329 69.92473 35205 ft 459 kts 37°
2026-04-25 14:44 42.77163 69.98071 35206 ft 459 kts 37°
2026-04-25 14:44 42.82005 70.03705 35211 ft 458 kts 37°
2026-04-25 14:45 42.86847 70.09353 35224 ft 458 kts 37°
2026-04-25 14:45 42.91643 70.14960 35221 ft 458 kts 37°
2026-04-25 14:46 42.96467 70.20612 35218 ft 458 kts 37°
2026-04-25 14:46 43.01304 70.26292 35215 ft 458 kts 37°
2026-04-25 14:47 43.05311 70.31010 35200 ft 458 kts 37°
2026-04-25 14:47 43.10921 70.37628 35195 ft 458 kts 37°
2026-04-25 14:48 43.15708 70.43288 35162 ft 457 kts 37°
2026-04-25 14:48 43.20522 70.48992 35142 ft 457 kts 37°
2026-04-25 14:49 43.25305 70.54669 35128 ft 458 kts 37°
2026-04-25 14:49 43.30110 70.60387 35121 ft 459 kts 37°
2026-04-25 14:50 43.34920 70.66125 35114 ft 458 kts 38°
2026-04-25 14:50 43.39728 70.71872 35112 ft 459 kts 38°
2026-04-25 14:51 43.44511 70.77602 35113 ft 458 kts 38°
2026-04-25 14:51 43.49247 70.83489 35112 ft 460 kts 42°
2026-04-25 14:52 43.53386 70.90159 35103 ft 464 kts 51°
2026-04-25 14:52 43.56388 70.96371 35108 ft 466 kts 54°
2026-04-25 14:53 43.60419 71.05148 35107 ft 465 kts 54°
2026-04-25 14:53 43.63860 71.12635 35108 ft 465 kts 54°
2026-04-25 14:54 43.67331 71.20177 35103 ft 465 kts 54°
2026-04-25 14:54 43.70776 71.27674 35103 ft 465 kts 54°
2026-04-25 14:55 43.74240 71.35230 35099 ft 465 kts 54°
2026-04-25 14:55 43.77669 71.42727 35103 ft 465 kts 54°
2026-04-25 14:56 43.81112 71.50275 35106 ft 465 kts 54°
2026-04-25 14:56 43.84553 71.57842 35104 ft 464 kts 54°
2026-04-25 14:57 43.87985 71.65408 35100 ft 464 kts 55°
2026-04-25 14:57 43.91388 71.72929 35102 ft 464 kts 55°
2026-04-25 14:58 43.94810 71.80510 35101 ft 464 kts 55°
2026-04-25 14:58 43.98223 71.88093 35098 ft 464 kts 55°
2026-04-25 14:59 44.01627 71.95674 35097 ft 463 kts 55°
2026-04-25 14:59 44.05007 72.03224 35095 ft 463 kts 55°
2026-04-25 15:00 44.08393 72.10813 35094 ft 463 kts 55°
2026-04-25 15:00 44.11781 72.18424 35089 ft 463 kts 55°
2026-04-25 15:01 44.15166 72.26047 35093 ft 462 kts 55°
2026-04-25 15:01 44.18519 72.33619 35090 ft 463 kts 55°
2026-04-25 15:02 44.21893 72.41255 35093 ft 463 kts 55°
2026-04-25 15:02 44.25239 72.48850 35091 ft 463 kts 55°
2026-04-25 15:03 44.28587 72.56478 35100 ft 463 kts 55°
2026-04-25 15:03 44.31939 72.64124 35106 ft 464 kts 55°
2026-04-25 15:04 44.33635 72.67998 35003 ft 464 kts 56°
2026-04-25 15:04 44.35305 72.71817 35061 ft 464 kts 56°
2026-04-25 15:04 44.38662 72.79511 35098 ft 464 kts 56°
2026-04-25 15:05 44.41993 72.87169 35102 ft 464 kts 56°
2026-04-25 15:06 44.46999 72.98718 35107 ft 464 kts 56°
2026-04-25 15:06 44.50333 73.06435 35113 ft 464 kts 56°
2026-04-25 15:07 44.53640 73.14108 35105 ft 464 kts 56°
2026-04-25 15:07 44.56958 73.21829 35099 ft 463 kts 56°
2026-04-25 15:08 44.60269 73.29558 35113 ft 462 kts 56°
2026-04-25 15:08 44.63565 73.37273 35120 ft 462 kts 56°
2026-04-25 15:09 44.66841 73.44961 35124 ft 463 kts 56°
2026-04-25 15:09 44.71775 73.56579 35129 ft 463 kts 56°
2026-04-25 15:10 44.75064 73.64354 35125 ft 463 kts 56°
2026-04-25 15:11 44.79975 73.76002 35127 ft 462 kts 56°
2026-04-25 15:11 44.83228 73.83753 35126 ft 461 kts 56°
2026-04-25 15:12 44.88099 73.95384 35126 ft 460 kts 56°
2026-04-25 15:12 44.90785 74.01824 35121 ft 460 kts 56°
2026-04-25 15:13 44.96189 74.14817 35121 ft 462 kts 56°
2026-04-25 15:14 45.00264 74.21581 35119 ft 452 kts 35°
2026-04-25 15:14 45.05650 74.25829 35118 ft 441 kts 15°
2026-04-25 15:15 45.11509 74.28163 35120 ft 439 kts 11°
2026-04-25 15:15 45.17423 74.30379 35117 ft 438 kts 11°
2026-04-25 15:16 45.23273 74.32603 35120 ft 439 kts 11°
2026-04-25 15:16 45.32127 74.36011 35123 ft 440 kts 11°
2026-04-25 15:17 45.40935 74.39422 35125 ft 440 kts 11°
2026-04-25 15:18 45.46849 74.41718 35127 ft 440 kts 11°
2026-04-25 15:18 45.55682 74.45157 35128 ft 439 kts 11°
2026-04-25 15:19 45.60567 74.47063 35127 ft 439 kts 11°
2026-04-25 15:19 45.67461 74.49760 35127 ft 440 kts 11°
2026-04-25 15:20 45.73356 74.52071 35128 ft 440 kts 11°
2026-04-25 15:20 45.79219 74.54374 35131 ft 441 kts 11°
2026-04-25 15:21 45.85117 74.56699 35130 ft 440 kts 11°
2026-04-25 15:21 45.91031 74.59032 35135 ft 439 kts 11°
2026-04-25 15:22 45.96882 74.61352 35134 ft 439 kts 11°
2026-04-25 15:22 46.02770 74.63699 35136 ft 440 kts 11°
2026-04-25 15:23 46.08659 74.66052 35137 ft 440 kts 12°
2026-04-25 15:23 46.14572 74.68420 35134 ft 441 kts 12°
2026-04-25 15:24 46.20442 74.70776 35134 ft 441 kts 12°
2026-04-25 15:24 46.25374 74.72759 35138 ft 440 kts 12°
2026-04-25 15:25 46.32232 74.75520 35134 ft 440 kts 12°
2026-04-25 15:25 46.38117 74.77897 35134 ft 440 kts 12°
2026-04-25 15:26 46.43981 74.80270 35134 ft 441 kts 12°
2026-04-25 15:26 46.49880 74.82662 35135 ft 442 kts 12°
2026-04-25 15:27 46.55795 74.85068 35138 ft 441 kts 12°
2026-04-25 15:28 46.64640 74.88675 35137 ft 441 kts 12°
2026-04-25 15:28 46.70545 74.91091 35136 ft 441 kts 12°
2026-04-25 15:29 46.76435 74.93504 35138 ft 441 kts 12°
2026-04-25 15:29 46.82328 74.95924 35139 ft 441 kts 11°
2026-04-25 15:30 46.88141 74.98669 35141 ft 445 kts 17°
2026-04-25 15:30 46.93758 75.02525 35144 ft 448 kts 23°
2026-04-25 15:31 46.99276 75.06783 35147 ft 448 kts 24°
2026-04-25 15:31 47.04769 75.11044 35149 ft 448 kts 24°
2026-04-25 15:32 47.10257 75.15298 35151 ft 448 kts 24°
2026-04-25 15:32 47.15749 75.19559 35154 ft 448 kts 23°
2026-04-25 15:33 47.23976 75.25958 35157 ft 448 kts 23°
2026-04-25 15:33 47.29479 75.30250 35160 ft 448 kts 23°
2026-04-25 15:34 47.34984 75.34553 35159 ft 449 kts 23°
2026-04-25 15:34 47.39587 75.38159 35160 ft 448 kts 23°
2026-04-25 15:35 47.48727 75.45344 35162 ft 449 kts 23°
2026-04-25 15:36 47.56955 75.51845 35163 ft 449 kts 23°
2026-04-25 15:36 47.62437 75.56191 35166 ft 448 kts 23°
2026-04-25 15:37 47.67917 75.60545 35168 ft 448 kts 23°
2026-04-25 15:37 47.73392 75.64905 35167 ft 448 kts 23°
2026-04-25 15:38 47.78881 75.69286 35169 ft 449 kts 24°
2026-04-25 15:38 47.84376 75.73683 35168 ft 449 kts 24°
2026-04-25 15:39 47.89867 75.78088 35171 ft 449 kts 24°
2026-04-25 15:39 47.95332 75.82484 35174 ft 449 kts 24°
2026-04-25 15:40 47.99917 75.86179 35172 ft 448 kts 24°
2026-04-25 15:40 48.06287 75.91325 35178 ft 448 kts 24°
2026-04-25 15:41 48.11761 75.95760 35182 ft 448 kts 24°
2026-04-25 15:41 48.17222 76.00195 35180 ft 449 kts 24°
2026-04-25 15:42 48.22718 76.04667 35192 ft 449 kts 24°
2026-04-25 15:42 48.28171 76.09119 35196 ft 449 kts 24°
2026-04-25 15:43 48.33642 76.13595 35196 ft 448 kts 24°
2026-04-25 15:43 48.39113 76.18079 35199 ft 448 kts 24°
2026-04-25 15:44 48.44577 76.22571 35204 ft 449 kts 24°
2026-04-25 15:44 48.50027 76.27060 35202 ft 450 kts 24°
2026-04-25 15:45 48.55505 76.31591 35205 ft 449 kts 24°
2026-04-25 15:45 48.60051 76.35355 35203 ft 449 kts 24°
2026-04-25 15:46 48.66412 76.40631 35210 ft 448 kts 24°
2026-04-25 15:46 48.71877 76.45175 35204 ft 449 kts 24°
2026-04-25 15:47 48.77347 76.49736 35208 ft 449 kts 24°
2026-04-25 15:47 48.80959 76.52754 35211 ft 449 kts 24°
2026-04-25 15:48 48.86383 76.57300 35215 ft 448 kts 24°
2026-04-25 15:48 48.91835 76.61877 35213 ft 448 kts 24°
2026-04-25 15:49 48.97281 76.66461 35207 ft 448 kts 25°
2026-04-25 15:49 49.02710 76.71050 35205 ft 448 kts 25°
2026-04-25 15:50 49.08157 76.75666 35198 ft 448 kts 25°
2026-04-25 15:50 49.13576 76.80274 35199 ft 449 kts 25°
2026-04-25 15:51 49.18103 76.84129 35202 ft 449 kts 25°
2026-04-25 15:51 49.24460 76.89549 35201 ft 448 kts 25°
2026-04-25 15:52 49.29865 76.94166 35202 ft 448 kts 25°
2026-04-25 15:52 49.35306 76.98827 35192 ft 448 kts 25°
2026-04-25 15:53 49.40709 77.03471 35196 ft 448 kts 25°
2026-04-25 15:53 49.46138 77.08151 35191 ft 448 kts 25°
2026-04-25 15:54 49.51540 77.12815 35182 ft 448 kts 25°
2026-04-25 15:54 49.56979 77.17523 35184 ft 449 kts 25°
2026-04-25 15:55 49.62392 77.22223 35178 ft 449 kts 25°
2026-04-25 15:55 49.67825 77.26949 35176 ft 448 kts 25°
2026-04-25 15:56 49.73212 77.31651 35171 ft 448 kts 25°
2026-04-25 15:56 49.78629 77.36391 35166 ft 448 kts 25°
2026-04-25 15:57 49.84012 77.41111 35155 ft 448 kts 25°
2026-04-25 15:57 49.89439 77.45885 35151 ft 448 kts 25°
2026-04-25 15:58 49.94830 77.50639 35147 ft 449 kts 25°
2026-04-25 15:58 50.00264 77.55445 35141 ft 448 kts 25°
2026-04-25 15:59 50.05648 77.60214 35128 ft 449 kts 25°
2026-04-25 15:59 50.11074 77.65037 35129 ft 448 kts 26°
2026-04-25 16:00 50.15577 77.69048 35131 ft 449 kts 26°
2026-04-25 16:00 50.21878 77.74676 35120 ft 449 kts 26°
2026-04-25 16:01 50.27248 77.79488 35118 ft 448 kts 26°
2026-04-25 16:01 50.32657 77.84346 35115 ft 448 kts 26°
2026-04-25 16:02 50.38024 77.89181 35112 ft 448 kts 26°
2026-04-25 16:02 50.43425 77.94056 35107 ft 448 kts 26°
2026-04-25 16:03 50.48785 77.98909 35109 ft 448 kts 26°
2026-04-25 16:03 50.54191 78.03817 35101 ft 449 kts 26°
2026-04-25 16:04 50.59563 78.08709 35104 ft 449 kts 26°
2026-04-25 16:04 50.64948 78.13622 35102 ft 448 kts 26°
2026-04-25 16:05 50.70298 78.18520 35098 ft 448 kts 26°
2026-04-25 16:06 50.78322 78.25889 35097 ft 442 kts 26°
2026-04-25 16:06 50.83599 78.30748 35098 ft 441 kts 27°
2026-04-25 16:07 50.88901 78.35647 35095 ft 441 kts 27°
2026-04-25 16:07 50.94156 78.40516 35091 ft 440 kts 27°
2026-04-25 16:08 50.99434 78.45419 35093 ft 439 kts 26°
2026-04-25 16:08 51.04705 78.50328 35090 ft 439 kts 26°
2026-04-25 16:09 51.09936 78.55213 35092 ft 439 kts 26°
2026-04-25 16:09 51.15214 78.60153 35093 ft 440 kts 26°
2026-04-25 16:10 51.20462 78.65079 35090 ft 440 kts 27°
2026-04-25 16:10 51.25695 78.70007 35092 ft 439 kts 27°
2026-04-25 16:11 51.30953 78.74969 35091 ft 438 kts 27°
2026-04-25 16:11 51.36166 78.79903 35100 ft 438 kts 27°
2026-04-25 16:12 51.41414 78.84882 35099 ft 438 kts 27°
2026-04-25 16:12 51.46619 78.89835 35096 ft 438 kts 27°
2026-04-25 16:13 51.51860 78.94836 35103 ft 438 kts 27°
2026-04-25 16:13 51.57055 78.99807 35101 ft 438 kts 27°
2026-04-25 16:14 51.62292 79.04830 35099 ft 438 kts 27°
2026-04-25 16:14 51.67504 79.09843 35098 ft 438 kts 27°
2026-04-25 16:15 51.72694 79.14848 35107 ft 438 kts 27°
2026-04-25 16:15 51.77905 79.19889 35101 ft 438 kts 27°
2026-04-25 16:16 51.83103 79.24963 35104 ft 439 kts 28°
2026-04-25 16:16 51.88181 79.30440 35099 ft 439 kts 30°
2026-04-25 16:17 51.93208 79.35973 35101 ft 440 kts 30°
2026-04-25 16:17 51.98270 79.41552 35105 ft 439 kts 30°
2026-04-25 16:18 52.03286 79.47093 35101 ft 439 kts 30°
2026-04-25 16:18 52.08336 79.52679 35106 ft 439 kts 30°
2026-04-25 16:19 52.13331 79.58221 35104 ft 439 kts 30°
2026-04-25 16:19 52.18364 79.63819 35099 ft 439 kts 31°
2026-04-25 16:20 52.25905 79.72237 35101 ft 439 kts 31°
2026-04-25 16:21 52.33430 79.80674 35103 ft 439 kts 31°
2026-04-25 16:21 52.38454 79.86326 35093 ft 439 kts 31°
2026-04-25 16:22 52.43479 79.91994 35115 ft 439 kts 31°
2026-04-25 16:22 52.48458 79.97629 35104 ft 438 kts 31°
2026-04-25 16:23 52.53461 80.03306 35081 ft 437 kts 31°
2026-04-25 16:23 52.55922 80.06104 35073 ft 425 kts 31°
2026-04-25 16:23 52.58289 80.08807 35070 ft 409 kts 31°
2026-04-25 16:24 52.62898 80.14065 35068 ft 403 kts 31°
2026-04-25 16:24 52.67478 80.19294 35069 ft 402 kts 31°
2026-04-25 16:25 52.72039 80.24520 35076 ft 401 kts 31°
2026-04-25 16:25 52.76622 80.29786 35074 ft 402 kts 31°
2026-04-25 16:26 52.81173 80.35033 35072 ft 402 kts 31°
2026-04-25 16:26 52.85767 80.40341 35069 ft 403 kts 31°
2026-04-25 16:27 52.90339 80.45641 35074 ft 403 kts 31°
2026-04-25 16:27 52.94909 80.50947 35076 ft 402 kts 31°
2026-04-25 16:28 52.99469 80.56257 35072 ft 403 kts 31°
2026-04-25 16:28 53.04030 80.61582 35073 ft 403 kts 31°
2026-04-25 16:29 53.08619 80.66956 35068 ft 404 kts 32°
2026-04-25 16:29 53.13182 80.72315 35073 ft 401 kts 32°
2026-04-25 16:29 53.15397 80.74928 35063 ft 386 kts 32°
2026-04-25 16:30 53.17580 80.77503 35069 ft 384 kts 31°
2026-04-25 16:30 53.22033 80.82744 35074 ft 403 kts 31°
2026-04-25 16:31 53.26679 80.88232 35073 ft 421 kts 32°
2026-04-25 16:31 53.31524 80.93977 35071 ft 437 kts 32°
2026-04-25 16:32 53.34190 80.97149 35074 ft 443 kts 32°
2026-04-25 16:32 53.39197 81.03122 35068 ft 444 kts 32°
2026-04-25 16:33 53.44199 81.09108 35071 ft 445 kts 32°
2026-04-25 16:33 53.49204 81.15109 35070 ft 445 kts 32°
2026-04-25 16:34 53.54247 81.21174 35075 ft 447 kts 32°
2026-04-25 16:34 53.59310 81.27280 35072 ft 452 kts 32°
2026-04-25 16:35 53.64395 81.33432 35074 ft 452 kts 32°
2026-04-25 16:35 53.69473 81.39593 35071 ft 452 kts 32°
2026-04-25 16:35 53.71989 81.42657 34921 ft 447 kts 32°
2026-04-25 16:36 53.74503 81.45721 34384 ft 443 kts 32°
2026-04-25 16:36 53.75354 81.46757 34174 ft 442 kts 32°
2026-04-25 16:36 53.79454 81.51758 33178 ft 437 kts 33°
2026-04-25 16:36 53.81891 81.54739 32499 ft 436 kts 33°
2026-04-25 16:37 53.84322 81.57722 31958 ft 431 kts 33°
2026-04-25 16:37 53.86745 81.60700 31500 ft 425 kts 33°
2026-04-25 16:37 53.89102 81.63602 31061 ft 419 kts 33°
2026-04-25 16:37 53.91432 81.66475 30622 ft 413 kts 34°
2026-04-25 16:38 53.93713 81.69291 30185 ft 407 kts 34°
2026-04-25 16:38 53.95992 81.72108 29748 ft 401 kts 34°
2026-04-25 16:38 53.98210 81.74854 29324 ft 396 kts 34°
2026-04-25 16:38 54.00428 81.77603 28897 ft 390 kts 34°
2026-04-25 16:39 54.02591 81.80332 28180 ft 394 kts 37°
2026-04-25 16:39 54.04676 81.83308 27369 ft 398 kts 40°
2026-04-25 16:39 54.06732 81.86480 26752 ft 397 kts 41°
2026-04-25 16:39 54.08738 81.89625 26211 ft 394 kts 41°
2026-04-25 16:40 54.10754 81.92793 25667 ft 391 kts 41°
2026-04-25 16:40 54.12730 81.95900 25119 ft 388 kts 41°
2026-04-25 16:40 54.14708 81.99007 24557 ft 386 kts 41°
2026-04-25 16:40 54.16663 82.02081 24006 ft 384 kts 41°
2026-04-25 16:41 54.18624 82.05164 23550 ft 381 kts 41°
2026-04-25 16:41 54.19893 82.07162 23215 ft 380 kts 41°
2026-04-25 16:41 54.24415 82.14297 21733 ft 382 kts 41°
2026-04-25 16:42 54.26371 82.17389 21155 ft 381 kts 41°
2026-04-25 16:42 54.28293 82.20433 20591 ft 380 kts 41°
2026-04-25 16:42 54.30219 82.23485 20026 ft 379 kts 41°
2026-04-25 16:42 54.32156 82.26561 19460 ft 378 kts 41°
2026-04-25 16:43 54.34082 82.29537 19011 ft 373 kts 38°
2026-04-25 16:43 54.36098 82.32260 18582 ft 369 kts 35°
2026-04-25 16:43 54.38123 82.34879 18151 ft 365 kts 35°
2026-04-25 16:43 54.40157 82.37507 17716 ft 362 kts 35°
2026-04-25 16:44 54.42135 82.40087 17283 ft 358 kts 35°
2026-04-25 16:44 54.44082 82.42647 16859 ft 355 kts 35°
2026-04-25 16:44 54.46048 82.45248 16423 ft 352 kts 35°
2026-04-25 16:44 54.47963 82.47792 15998 ft 350 kts 35°
2026-04-25 16:45 54.49863 82.50325 15576 ft 347 kts 35°
2026-04-25 16:45 54.51754 82.52851 15145 ft 345 kts 35°
2026-04-25 16:45 54.53655 82.55393 14716 ft 343 kts 35°
2026-04-25 16:45 54.55517 82.57888 14294 ft 341 kts 35°
2026-04-25 16:46 54.57361 82.60362 13871 ft 338 kts 35°
2026-04-25 16:46 54.59226 82.62864 13450 ft 336 kts 35°
2026-04-25 16:46 54.61051 82.65316 13033 ft 334 kts 36°
2026-04-25 16:46 54.62273 82.66958 12716 ft 333 kts 36°
2026-04-25 16:47 54.64675 82.70191 12098 ft 332 kts 36°
2026-04-25 16:47 54.66495 82.72648 11612 ft 331 kts 36°
2026-04-25 16:47 54.68285 82.75065 11124 ft 330 kts 36°
2026-04-25 16:47 54.70092 82.77509 10627 ft 328 kts 36°
2026-04-25 16:48 54.71875 82.79923 10136 ft 327 kts 36°
2026-04-25 16:48 54.73651 82.82332 9641 ft 325 kts 35°
2026-04-25 16:48 54.75438 82.84753 9138 ft 324 kts 36°
2026-04-25 16:48 54.77185 82.87125 8649 ft 322 kts 36°
2026-04-25 16:49 54.78932 82.89497 8154 ft 321 kts 36°
2026-04-25 16:49 54.80701 82.91902 7655 ft 320 kts 36°
2026-04-25 16:49 54.82415 82.94240 7158 ft 318 kts 36°
2026-04-25 16:49 54.84166 82.96631 6649 ft 317 kts 36°
2026-04-25 16:50 54.85882 82.98975 6158 ft 315 kts 36°
2026-04-25 16:50 54.87599 83.01322 5660 ft 314 kts 37°
2026-04-25 16:50 54.89305 83.03655 5153 ft 309 kts 37°
2026-04-25 16:50 54.90930 83.05881 4666 ft 294 kts 37°
2026-04-25 16:51 54.92637 83.07632 4186 ft 278 kts 14°
2026-04-25 16:51 54.94462 83.07621 3718 ft 250 kts 336°
2026-04-25 16:51 54.95730 83.05969 3283 ft 219 kts 296°
2026-04-25 16:51 54.96137 83.04423 3069 ft 203 kts 285°
2026-04-25 16:52 54.96864 83.01595 2978 ft 187 kts 294°
2026-04-25 16:52 54.97554 82.99663 3047 ft 192 kts 300°
2026-04-25 16:52 54.98353 82.97787 3065 ft 191 kts 303°
2026-04-25 16:52 54.99163 82.96062 2879 ft 180 kts 305°
2026-04-25 16:53 55.00743 82.92870 2183 ft 173 kts 305°
2026-04-25 16:53 55.01535 82.91290 1988 ft 171 kts 304°
2026-04-25 16:53 55.02316 82.89735 1990 ft 171 kts 305°
2026-04-25 16:54 55.03050 82.88129 2007 ft 165 kts 290°
2026-04-25 16:54 55.03201 82.86256 2005 ft 155 kts 259°
2026-04-25 16:54 55.03062 82.84437 1980 ft 141 kts 253°
2026-04-25 16:54 55.02905 82.82869 1946 ft 127 kts 252°
2026-04-25 16:55 55.02750 82.81368 1885 ft 127 kts 252°
2026-04-25 16:55 55.02649 82.80337 1774 ft 129 kts 252°
2026-04-25 16:55 55.02568 82.79499 1682 ft 130 kts 253°
2026-04-25 16:55 55.02423 82.77944 1514 ft 131 kts 253°
2026-04-25 16:56 55.02280 82.76374 1342 ft 132 kts 254°
2026-04-25 16:56 55.02136 82.74798 1168 ft 133 kts 255°
2026-04-25 16:56 55.02088 82.74271 1111 ft 133 kts 255°
2026-04-25 16:56 55.01943 82.72675 934 ft 134 kts 255°
2026-04-25 16:57 55.01796 82.71076 756 ft 134 kts 256°